Flag for Switzerland Weather past 2 weeks in Lausanne, Vaud, Switzerland

Now
69 °F

Mild.


Feels Like: 69 °F
Forecast: 54 / 72 °F
Wind: 10 mph from North

Location: Aigle

Current Time: Aug 28, 2014 at 1:14:46 PM

Latest Report: Aug 28, 2014 at 12:00 PM


Visibility: N/A

Pressure: 30.04 "Hg

Humidity: 69%

Dew point: 58 °F

Location of LausanneLocation

Historic Weather in Lausanne — Graph

°F

Lausanne temperature yesterday

Maximum temperature yesterday: 71 °F (at 4:00 PM)
Minimum temperature yesterday: 56 °F (at 5:00 AM)
Average temperature yesterday: 64 °F

Past Weeks' High & Low Weather Summary

 TemperatureHumidityPressure
High74 °F (Aug 18, 5:00 PM)98% (Aug 21, 7:00 AM)30.21 "Hg (Aug 21, 7:00 AM)
Low47 °F (Aug 17, 7:00 AM)38% (Aug 21, 4:00 PM)29.74 "Hg (Aug 13, 1:00 PM)
Average60 °F77%30.01 "Hg
* Reported Aug 13 12:00 Noon — Aug 28 12:00 Noon, Lausanne, Weather by CustomWeather, © 2014

Note: Actual official high and low records may vary slightly from our data, if they occured in-between our weather recording intervals... More about our weather records

Advertising

Lausanne weather history for previous 24 hours

 ConditionsComfort  
Time TempWeatherWind HumidityBarometerVisibility
12:00 PM
Aug 28
69 °FMild.10 mph69%30.04 "HgN/A
11:00 AM68 °FPassing clouds.5 mph68%30.05 "Hg25 mi
10:00 AM67 °FMild.1 mph69%30.06 "HgN/A
9:00 AM64 °FMild.6 mph77%30.07 "HgN/A
8:00 AM58 °FPassing clouds.1 mph97%30.09 "Hg19 mi
7:00 AM59 °FCool.3 mph93%30.07 "HgN/A
6:00 AM59 °FCool.3 mph95%30.06 "HgN/A
5:00 AM59 °FFog.1 mph96%30.06 "Hg9 mi
4:00 AM59 °FCool.No wind97%30.05 "HgN/A
3:00 AM59 °FCool.1 mph94%30.05 "HgN/A
2:00 AM59 °FCool.2 mph95%30.06 "HgN/A
1:00 AM58 °FCool.2 mph93%30.06 "HgN/A
12:00 AM58 °FCool.2 mph92%30.05 "HgN/A
11:00 PM
Aug 27
61 °FCool.2 mph86%30.03 "HgN/A
10:00 PM63 °FMild.No wind87%30.02 "HgN/A
9:00 PM64 °FMild.2 mph83%30.00 "HgN/A
7:00 PM69 °FMild.3 mph60%29.97 "HgN/A
6:00 PM69 °FMild.8 mph58%29.96 "HgN/A
5:00 PM69 °FMild.10 mph57%29.96 "HgN/A
4:00 PM71 °FMild.9 mph57%29.95 "HgN/A
3:00 PM71 °FMild.13 mph58%29.95 "HgN/A
2:00 PM70 °FMild.13 mph55%29.95 "HgN/A
1:00 PM70 °FMild.12 mph63%29.96 "HgN/A
Weather by CustomWeather, © 2014

See weather overviewHow to use our weather pages